Glidden, IA

2:28 PM CST on February 26, 2017 (GMT -0600)
Neu

Weather History for KCIN - November, 2012

Change the Weather History Date:

Wednesday, November 14, 2012

  Actual Average Record
Temperature  
Mean Temperature 45 °F -  
Max Temperature 57 °F 43 °F 71 °F (1964)
Min Temperature 33 °F 26 °F -10 °F (1959)
Degree Days  
Heating Degree Days 20    
Moisture  
Dew Point 29 °F    
Average Humidity 57    
Maximum Humidity 81    
Minimum Humidity 29    
Precipitation  
Precipitation 0.00 in - - ()
Sea Level Pressure  
Sea Level Pressure 30.24 in    
Wind  
Wind Speed 13 mph (SSW)    
Max Wind Speed 23 mph    
Max Gust Speed 26 mph    
Visibility 10 miles    
Events      
Averages and records for this station are not official NWS values.
T = Trace of Precipitation, MM = Missing Value Source: NWS Daily Summary

Daily Weather History Graph

Daily Weather History Graph

Search for Another Location

Airport or City:

Trip Planner

Search our weather history database for the weather conditions in past years. The results will help you decide how hot, cold, wet, or windy it might be!

Date:

Astronomy

Nov. 14, 2012 Rise Set
Actual Time 7:08 AM CST 4:58 PM CST
Civil Twilight 6:38 AM CST 5:28 PM CST
Nautical Twilight 6:04 AM CST 6:02 PM CST
Astronomical Twilight 5:31 AM CST 6:35 PM CST
Moon 7:59 AM CST (11/14) 5:46 PM CST (11/14)
Length of Visible Light 10h 49m
Length of Day
9h 49m
New Moon, 1% of the Moon is Illuminated
Nov 14
New Moon
Nov 20
First Quarter
Nov 28
Full
Dec 6
Last Quarter
Dec 13
New

Hourly Weather History & Observations

Time (CST) Temp. Windchill Dew Point Humidity Pressure Visibility Wind Dir Wind Speed Gust Speed Precip Events Conditions
12:15 AM 42.8 °F 36.6 °F 32.0 °F 66% 30.28 in 10.0 mi SSW 11.5 mph - N/A   Overcast
12:35 AM 42.8 °F 36.6 °F 32.0 °F 66% 30.28 in 10.0 mi SSW 11.5 mph - N/A   Overcast
12:55 AM 42.8 °F 36.2 °F 32.0 °F 66% 30.28 in 10.0 mi SSW 12.7 mph - N/A   Overcast
1:15 AM 42.8 °F 36.6 °F 32.0 °F 66% 30.28 in 10.0 mi SSW 11.5 mph - N/A   Overcast
1:35 AM 42.8 °F 36.6 °F 32.0 °F 66% 30.28 in 10.0 mi SSW 11.5 mph - N/A   Overcast
1:55 AM 41.0 °F 34.7 °F 30.2 °F 65% 30.28 in 10.0 mi SSW 10.4 mph - N/A   Mostly Cloudy
2:15 AM 41.0 °F 33.5 °F 30.2 °F 65% 30.28 in 10.0 mi SSW 13.8 mph - N/A   Scattered Clouds
2:35 AM 41.0 °F 33.9 °F 32.0 °F 70% 30.28 in 10.0 mi SSW 12.7 mph - N/A   Partly Cloudy
2:55 AM 39.2 °F 32.0 °F 32.0 °F 75% 30.28 in 10.0 mi SSW 11.5 mph - N/A   Mostly Cloudy
3:15 AM 39.2 °F 32.0 °F 30.2 °F 70% 30.28 in 10.0 mi SSW 11.5 mph - N/A   Mostly Cloudy
3:35 AM 41.0 °F 33.9 °F 30.2 °F 65% 30.28 in 10.0 mi SSW 12.7 mph - N/A   Mostly Cloudy
3:55 AM 41.0 °F 33.5 °F 30.2 °F 65% 30.28 in 10.0 mi SSW 13.8 mph - N/A   Scattered Clouds
4:15 AM 39.2 °F 31.6 °F 30.2 °F 70% 30.28 in 10.0 mi SSW 12.7 mph - N/A   Clear
4:35 AM 39.2 °F 32.0 °F 30.2 °F 70% 30.28 in 10.0 mi SSW 11.5 mph - N/A   Partly Cloudy
4:55 AM 39.2 °F 32.5 °F 30.2 °F 70% 30.29 in 10.0 mi SSW 10.4 mph - N/A   Partly Cloudy
5:15 AM 37.4 °F 29.8 °F 30.2 °F 75% 30.29 in 10.0 mi SSW 11.5 mph - N/A   Clear
5:35 AM 35.6 °F 28.0 °F 28.4 °F 75% 30.29 in 10.0 mi SSW 10.4 mph - N/A   Clear
5:55 AM 35.6 °F 27.5 °F 28.4 °F 75% 30.28 in 10.0 mi SSW 11.5 mph - N/A   Clear
6:15 AM 35.6 °F 26.6 °F 28.4 °F 75% 30.28 in 10.0 mi SSW 13.8 mph - N/A   Clear
6:35 AM 33.8 °F 24.3 °F 28.4 °F 81% 30.28 in 10.0 mi SW 13.8 mph - N/A   Clear
6:55 AM 33.8 °F 24.3 °F 28.4 °F 81% 30.28 in 10.0 mi SSW 13.8 mph - N/A   Clear
7:15 AM 33.8 °F 24.3 °F 28.4 °F 81% 30.28 in 10.0 mi SW 13.8 mph - N/A   Clear
7:35 AM 33.8 °F 24.8 °F 28.4 °F 81% 30.29 in 10.0 mi SW 12.7 mph - N/A   Clear
7:55 AM 35.6 °F 27.1 °F 28.4 °F 75% 30.29 in 10.0 mi SW 12.7 mph - N/A   Clear
8:15 AM 37.4 °F 29.8 °F 30.2 °F 75% 30.29 in 10.0 mi SW 11.5 mph - N/A   Clear
8:35 AM 39.2 °F 31.6 °F 30.2 °F 70% 30.30 in 10.0 mi SW 12.7 mph - N/A   Clear
8:55 AM 41.0 °F 33.5 °F 30.2 °F 65% 30.30 in 10.0 mi SSW 13.8 mph - N/A   Clear
9:15 AM 42.8 °F 35.4 °F 30.2 °F 61% 30.30 in 10.0 mi SSW 15.0 mph - N/A   Clear
9:35 AM 44.6 °F 37.8 °F 30.2 °F 57% 30.29 in 10.0 mi SSW 15.0 mph 23.0 mph N/A   Clear
9:55 AM 44.6 °F 37.2 °F 30.2 °F 57% 30.30 in 10.0 mi SW 17.3 mph - N/A   Clear
10:15 AM 46.4 °F 40.1 °F 30.2 °F 53% 30.29 in 10.0 mi SSW 15.0 mph - N/A   Clear
10:35 AM 48.2 °F - 28.4 °F 46% 30.29 in 10.0 mi SSW 13.8 mph - N/A   Clear
10:55 AM 48.2 °F - 28.4 °F 46% 30.29 in 10.0 mi SW 13.8 mph - N/A   Clear
11:15 AM 50.0 °F - 28.4 °F 43% 30.28 in 10.0 mi SSW 12.7 mph - N/A   Clear
11:35 AM 51.8 °F - 28.4 °F 41% 30.27 in 10.0 mi SW 17.3 mph 24.2 mph N/A   Clear
11:55 AM 51.8 °F - 28.4 °F 41% 30.26 in 10.0 mi SW 20.7 mph - N/A   Clear
12:15 PM 53.6 °F - 26.6 °F 35% 30.25 in 10.0 mi SSW 21.9 mph - N/A   Clear
12:35 PM 55.4 °F - 26.6 °F 33% 30.24 in 10.0 mi SSW 15.0 mph 23.0 mph N/A   Clear
12:55 PM 55.4 °F - 26.6 °F 33% 30.23 in 10.0 mi SSW 19.6 mph - N/A   Clear
1:15 PM 55.4 °F - 24.8 °F 31% 30.22 in 10.0 mi SSW 20.7 mph 26.5 mph N/A   Clear
1:35 PM 57.2 °F - 24.8 °F 29% 30.22 in 10.0 mi SW 23.0 mph - N/A   Clear
1:55 PM 57.2 °F - 24.8 °F 29% 30.21 in 10.0 mi SSW 19.6 mph 26.5 mph N/A   Clear
2:15 PM 57.2 °F - 24.8 °F 29% 30.21 in 10.0 mi SW 19.6 mph 26.5 mph N/A   Clear
2:35 PM 57.2 °F - 24.8 °F 29% 30.20 in 10.0 mi SSW 19.6 mph 25.3 mph N/A   Clear
2:55 PM 55.4 °F - 24.8 °F 31% 30.20 in 10.0 mi SW 19.6 mph - N/A   Clear
3:15 PM 55.4 °F - 24.8 °F 31% 30.20 in 10.0 mi SSW 17.3 mph 24.2 mph N/A   Clear
3:35 PM 55.4 °F - 24.8 °F 31% 30.20 in 10.0 mi SSW 18.4 mph - N/A   Clear
3:55 PM 55.4 °F - 24.8 °F 31% 30.20 in 10.0 mi SSW 16.1 mph - N/A   Clear
4:15 PM 53.6 °F - 26.6 °F 35% 30.20 in 10.0 mi SSW 12.7 mph - N/A   Clear
4:35 PM 50.0 °F - 26.6 °F 40% 30.20 in 10.0 mi South 10.4 mph - N/A   Clear
4:55 PM 48.2 °F - 28.4 °F 46% 30.20 in 10.0 mi South 9.2 mph - N/A   Clear
5:15 PM 46.4 °F 42.4 °F 28.4 °F 50% 30.19 in 9.0 mi South 8.1 mph - N/A   Clear
5:35 PM 44.6 °F 39.7 °F 28.4 °F 53% 30.19 in 10.0 mi South 9.2 mph - N/A   Clear
5:55 PM 44.6 °F 40.2 °F 28.4 °F 53% 30.19 in 10.0 mi South 8.1 mph - N/A   Clear
6:15 PM 42.8 °F 38.0 °F 28.4 °F 57% 30.19 in 10.0 mi South 8.1 mph - N/A   Clear
6:35 PM 42.8 °F 37.0 °F 30.2 °F 61% 30.20 in 10.0 mi South 10.4 mph - N/A   Clear
6:55 PM 42.8 °F 36.6 °F 30.2 °F 61% 30.19 in 10.0 mi South 11.5 mph - N/A   Clear
7:15 PM 42.8 °F 36.6 °F 30.2 °F 61% 30.19 in 10.0 mi South 11.5 mph - N/A   Clear
7:35 PM 41.0 °F 35.8 °F 28.4 °F 61% 30.19 in 10.0 mi South 8.1 mph - N/A   Clear
7:55 PM 41.0 °F 35.2 °F 28.4 °F 61% 30.19 in 10.0 mi South 9.2 mph - N/A   Clear
8:35 PM 41.0 °F 35.2 °F 28.4 °F 61% 30.19 in 10.0 mi South 9.2 mph - N/A   Clear
8:55 PM 41.0 °F 34.3 °F 28.4 °F 61% 30.20 in 10.0 mi South 11.5 mph - N/A   Partly Cloudy
9:15 PM 39.2 °F 32.5 °F 28.4 °F 65% 30.20 in 10.0 mi South 10.4 mph - N/A   Partly Cloudy
9:35 PM 41.0 °F 34.3 °F 28.4 °F 61% 30.20 in 10.0 mi South 11.5 mph - N/A   Mostly Cloudy
9:55 PM 41.0 °F 35.8 °F 28.4 °F 61% 30.20 in 10.0 mi SSW 8.1 mph - N/A   Overcast
10:15 PM 41.0 °F 35.8 °F 28.4 °F 61% 30.20 in 10.0 mi SSW 8.1 mph - N/A   Overcast
10:35 PM 41.0 °F 34.7 °F 28.4 °F 61% 30.20 in 10.0 mi South 10.4 mph - N/A   Overcast
10:55 PM 41.0 °F 34.3 °F 28.4 °F 61% 30.20 in 10.0 mi South 11.5 mph - N/A   Overcast
11:15 PM 41.0 °F 34.3 °F 28.4 °F 61% 30.20 in 10.0 mi South 11.5 mph - N/A   Overcast
11:35 PM 42.8 °F 36.6 °F 28.4 °F 57% 30.19 in 10.0 mi South 11.5 mph - N/A   Overcast
11:55 PM 42.8 °F 36.6 °F 30.2 °F 61% 30.19 in 10.0 mi South 11.5 mph - N/A   Overcast